Location: Sternwarte_Laufen
(47.9344°N, 12.9346°E)
Time: 09:17:52
(UTC+02:00)

ISS - Pass Details

Date: 27 May 2017
Orbit: 401 x 408 km, 51.6° (Epoch: 28 June)

Event Time Altitude Azimuth Distance (km) Brightness Sun altitude
Rises 22:24:22 0° 253° (WSW) 2,335 0.3 -11.8°
Reaches altitude 10° 22:26:28 10° 256° (WSW) 1,475 -0.7 -12.0°
Maximum altitude 22:29:46 69° 341° (NNW) 441 -3.5 -12.3°
Drops below altitude 10° 22:33:04 10° 65° (ENE) 1,476 -1.1 -12.7°
Sets 22:35:09 0° 68° (ENE) 2,337 -0.1 -12.9°
